Location: Unspecified
(0.0000°N, 0.0000°E)
Time: 00:25:24
(UTC+02:00)

CZ-4B DEB - Visible Passes

Search period start: 21 August 2014 00:00
Search period end: 31 August 2014 00:00
Orbit: 522 x 538 km, 97.5° (Epoch: 20 August)

Date Brightness Start Highest point End Pass type
(mag) Time Alt. Az. Time Alt. Az. Time Alt. Az.
21 Aug 3.5 20:50:59 10° S 20:54:46 70° WSW 20:58:32 10° NNW visible
22 Aug 3.1 20:40:30 10° SSE 20:44:18 77° E 20:48:04 10° N visible
23 Aug 3.4 20:30:07 10° SSE 20:33:48 50° E 20:37:28 10° N visible
26 Aug 6.3 21:34:06 10° SW 21:36:17 15° WSW 21:38:27 10° WNW visible
27 Aug 5.8 21:22:48 10° SSW 21:25:43 21° WSW 21:28:38 10° NW visible
28 Aug 5.1 21:11:46 10° SSW 21:15:09 31° WSW 21:18:30 10° NW visible
29 Aug 4.3 21:00:54 10° S 21:04:33 46° WSW 21:08:11 10° NNW visible
30 Aug 3.4 20:50:09 10° S 20:53:56 72° WSW 20:57:41 10° NNW visible
